Location: Turtle Rock Observatory
(36.6913°N, 81.9708°W)
Time: 09:06:40
(UTC-04:00)

Daily predictions for brighter satellites

Satellite Brightness Start Highest point End
(mag) Time Altitude Azimuth Time Altitude Azimuth Time Altitude Azimuth
Cosmos 1943 3.3 21:02:15 10° NNW 21:07:56 83° WSW 21:13:32 10° SSE
Meteor 2-3 Rocket 3.8 21:05:53 10° S 21:11:25 59° E 21:16:55 10° NNE
Abrixas rocket 3.3 21:10:07 10° NW 21:13:20 37° NNE 21:16:32 10° E
Meteor 1-26 Rocket 4.3 21:07:43 10° N 21:13:35 76° E 21:19:28 10° SSE
CZ-2D R/B 3.5 21:10:13 10° S 21:14:02 72° W 21:17:50 10° NNW
Okean 1-7 3.0 21:10:14 10° N 21:14:32 69° E 21:18:49 10° SSE
CZ-4 DEB 3.0 21:12:40 10° SSE 21:15:43 48° ENE 21:18:48 10° N
Cosmos 1844 Rocket 3.8 21:12:34 10° SSE 21:16:56 23° ESE 21:21:18 10° NE
Cosmos 2056 Rocket 4.2 21:12:38 10° SSE 21:17:13 32° E 21:21:45 10° NE
Cosmos 1371 Rocket 4.3 21:14:00 10° S 21:19:06 48° ESE 21:24:10 10° NNE
Cosmos 1340 Rocket 2.8 21:17:42 10° S 21:21:36 63° E 21:25:34 10° NNE
Cosmos 1461 3.3 21:19:34 10° SSW 21:24:16 79° WNW 21:28:52 10° NNE
Cosmos 1939 Rocket 3.7 21:21:43 10° SE 21:25:10 32° ENE 21:28:40 10° N
Atlas Centaur 2 2.2 21:23:44 10° SW 21:26:44 25° S 21:29:21 13° ESE
Cosmos 1782 4.2 21:27:11 10° NNE 21:30:24 22° ENE 21:32:54 13° ESE
Cosmos 2263 Rocket 3.3 21:25:56 10° SW 21:31:26 50° WNW 21:36:57 10° NNE
FENGYUN 3A 4.4 21:29:23 10° S 21:34:40 55° W 21:39:58 10° NNW
CENTAUR R/B 3.3 21:28:24 10° NNW 21:36:13 61° NE 21:43:29 14° SE
SL-8 R/B 3.7 21:35:27 10° SW 21:40:16 86° SSE 21:45:07 10° NE
SL-27 R/B 4.1 21:38:03 10° NNE 21:40:54 21° ENE 21:42:35 16° ESE
YAOGAN 6 4.4 21:40:07 13° E 21:41:28 16° ENE 21:43:42 10° NNE
NOSS 2-2 (D) 3.4 21:38:22 10° SSW 21:42:22 66° ESE 21:46:52 10° NE
Coronas F rocket 1.1 21:41:15 10° S 21:43:53 77° E 21:46:32 10° N
Cosmos 2184 Rocket 3.9 21:39:30 10° S 21:45:37 74° E 21:51:47 10° N
COS B Rocket 4.4 21:45:36 10° NNE 21:49:13 27° E 21:50:53 20° ESE
deb Chang Zheng 4 3.5 21:44:58 10° NNE 21:49:22 70° ESE 21:53:46 10° S
Cosmos 1606 4.1 21:49:49 10° NNE 21:53:02 24° ENE 21:54:19 20° ESE
Cosmos 1908 Rocket 4.2 21:53:55 19° SE 21:56:22 34° E 22:00:23 10° NNE
Cosmos 1624 Rocket 4.0 21:51:22 10° SSW 21:56:36 89° ESE 22:01:56 10° NNE
NOSS 2-2 (C) 3.5 21:53:00 10° SSW 21:57:03 84° WNW 22:01:37 10° NNE
Cosmos 1892 3.1 21:54:23 10° SSW 21:58:10 64° W 22:01:59 10° N
Envisat 3.0 21:53:56 14° SSE 21:58:18 75° ENE 22:03:23 10° N
H-2A R/B 4.1 21:56:04 11° E 21:58:18 14° ENE 22:00:52 10° NNE
SL-08 ROCKET BODY 4.4 21:52:46 10° S 21:58:51 85° E 22:04:51 10° N
Meteor 2-10 Rocket 3.8 21:53:22 10° N 21:59:14 88° W 22:04:46 11° S
USA 186 4.5 21:57:34 10° SW 21:59:29 16° W 22:01:29 10° NW
Cosmos 1733 Rocket 3.1 21:57:59 10° S 22:02:24 81° W 22:06:50 10° N
Cosmos 1378 Rocket 4.5 22:03:01 10° NNE 22:06:50 30° ENE 22:08:06 25° ESE
Meteor 2-6 Rocket 4.3 22:01:31 10° N 22:07:28 67° E 22:11:37 20° SSE
CZ-4 SHROUD 3.7 22:08:16 35° ESE 22:08:52 40° ENE 22:11:47 10° N
SPOT 1/Viking Rocket 4.2 22:10:27 25° ESE 22:12:53 39° ENE 22:17:42 10° N
ERBS 2.8 22:12:17 10° NNW 22:15:40 49° NE 22:16:36 37° E
Cosmos 407 Rocket 3.7 22:14:18 10° N 22:19:29 56° ENE 22:21:52 31° SE
Cosmos 1452 Rocket 3.6 22:16:33 17° S 22:20:25 54° ESE 22:25:34 10° NNE
Cosmos 1238 Rocket 3.3 22:19:16 10° NNE 22:21:59 32° ENE 22:21:59 32° ENE
SPOT 5 3.0 22:19:22 23° SSE 22:22:42 89° W 22:28:03 10° NNW
H-2A R/B 2.8 22:24:05 18° S 22:27:10 49° W 22:31:21 10° NNW
ERS-1 Rocket 4.3 22:22:40 10° SSW 22:27:16 36° W 22:31:53 10° NNW
COSMOS 2406 3.3 22:21:59 10° NNW 22:27:44 76° WSW 22:30:59 27° S
PSLV R/B 2.9 22:29:27 72° SSW 22:29:41 80° W 22:32:38 10° NNW
Cosmos 1190 Rocket 3.9 22:24:53 10° NNW 22:30:06 89° ENE 22:32:30 33° SSE
Cosmos 2084 4.4 22:32:18 26° ENE 22:32:18 26° ENE 22:34:19 10° NE
MetOp-B 4.1 22:28:34 28° SSE 22:31:30 89° ENE 22:36:52 10° NNW
Cosmos 1862 3.2 22:33:23 38° S 22:34:53 85° E 22:38:59 10° N
Nadezhda 3 Rocket 4.0 22:31:55 10° N 22:38:18 83° E 22:41:45 29° S
Terra 3.2 22:37:58 23° E 22:38:33 24° ENE 22:42:19 10° NNE
ARGOS 3.2 22:38:33 39° SE 22:40:29 64° ENE 22:45:47 10° N
Okean 2 Rocket 3.1 22:42:45 53° SE 22:43:18 57° E 22:47:38 10° NNE
ATLAS 5 CENTAUR R/B 2.6 22:37:53 10° NW 22:43:58 68° WSW 22:46:55 33° S
Cosmos 2278 Rocket 2.1 22:43:31 26° S 22:46:44 69° ESE 22:52:24 10° NNE
PSLV R/B 3.3 22:43:19 10° WNW 22:46:43 77° N 22:46:43 77° N
Cosmos 1844 3.9 22:43:26 10° SSW 22:49:09 74° WNW 22:54:58 10° NNE
Abrixas rocket 4.0 22:47:26 10° WNW 22:49:51 24° WSW 22:49:51 24° WSW
USA 234 3.1 22:44:04 10° NE 22:50:37 78° SE 22:57:08 10° SW
Cosmos 2341 Rocket 4.0 22:46:29 21° S 22:50:54 84° W 22:57:13 10° N
CZ-4B R/B 3.4 22:47:25 10° N 22:52:24 79° WNW 22:54:54 29° SSW
CZ-4C R/B 4.0 22:54:26 39° NE 22:54:26 39° NE 22:57:42 10° N
Cosmos 1825 2.6 22:54:31 46° SW 22:55:20 58° W 22:59:07 10° N
Cosmos 1833 Rocket 4.5 22:52:12 10° NNE 22:55:55 18° NE 22:57:19 16° ENE
Cosmos 676 Rocket 3.9 22:54:36 10° NNW 22:59:48 83° WSW 23:01:02 54° S
Cosmos 1844 Rocket 3.8 22:55:09 10° SW 23:00:29 43° WNW 23:05:52 10° N
Cosmos 1184 Rocket 3.7 23:04:00 50° NW 23:04:00 50° NW 23:06:50 10° N
Timation 2 Rocket 4.4 22:58:21 10° N 23:04:04 44° ENE 23:05:20 39° E
Meteor 1-27 Rocket 4.2 22:58:51 10° NNW 23:04:16 53° W 23:06:42 31° SSW
Cosmos 1954 Rocket 3.9 23:02:18 10° NNW 23:07:32 89° ENE 23:08:21 65° SSE
Cosmos 1782 Rocket 4.1 23:07:22 41° SW 23:08:37 57° W 23:13:02 10° N
Cosmos 2082 Rocket 3.4 23:03:51 10° N 23:08:43 28° ENE 23:09:37 27° ENE
Cosmos 1741 Rocket 4.4 23:09:36 10° N 23:14:40 47° ENE 23:14:51 47° ENE
COSMOS 2487 3.4 23:11:04 10° NNW 23:13:44 47° NNW 23:13:44 47° NNW
YAOGAN 6 4.4 23:14:37 23° WSW 23:14:51 23° W 23:17:44 10° NW
Atlas Centaur 2 3.7 23:11:38 10° WSW 23:12:00 12° WSW 23:12:00 12° WSW
Cosmos 1408 4.2 23:15:26 27° WSW 23:16:13 29° WNW 23:19:29 10° NNW
Cosmos 2297 3.7 23:16:56 61° ESE 23:17:00 61° ESE 23:22:39 10° NNE
IGS 5A 4.2 23:17:59 45° NE 23:17:59 45° NE 23:21:17 10° N
SL-8 Rocket 3.9 23:17:09 45° S 23:19:17 85° W 23:25:35 10° N
CZ-4 R/B 4.4 23:15:34 10° N 23:20:07 53° WNW 23:21:34 38° SW
DNEPR-1 R/B 4.4 23:15:26 10° NNW 23:20:31 43° NE 23:20:38 43° ENE
APEX 4.5 23:22:48 37° NNE 23:22:48 37° NNE 23:25:47 10° NNE
SL-08 RB Rocket 4.2 23:24:57 49° WSW 23:25:17 50° W 23:29:47 10° NNW
CENTAUR R/B 4.3 23:19:51 10° NW 23:26:38 31° WSW 23:30:41 21° SSW
CARTOSAT-1 3.9 23:27:44 63° N 23:27:44 63° N 23:31:24 10° N
Cosmos 1975 Rocket 3.8 23:23:10 10° NNW 23:27:18 45° W 23:27:24 45° W
H-2A R/B 2.1 23:36:42 71° SW 23:37:03 74° WSW 23:42:26 10° NNW
Meteor 2-19 Rocket 4.3 23:37:44 68° ESE 23:37:56 69° E 23:44:02 10° NNE
Cosmos 1242 Rocket 4.3 23:35:06 10° NNW 23:37:28 32° NW 23:37:28 32° NW
Cosmos 1536 Rocket 4.3 23:35:39 10° N 23:39:02 49° NNE 23:39:02 49° NNE
Cosmos 2151 Rocket 4.3 23:49:00 53° NW 23:49:00 53° NW 23:52:49 10° N
Meteor 2-8 Rocket 4.3 23:45:28 10° N 23:51:39 90° W 23:51:55 83° S
Meteor 1-20 Rocket 4.2 23:54:18 74° NE 23:54:18 74° NE 23:59:24 10° N
